Location: Kleszcz�w
(50.3474°N, 18.5266°E)
Time: 11:30:25
(UTC+00:00)

Daily predictions for brighter satellites

Satellite Brightness Start Highest point End
(mag) Time Altitude Azimuth Time Altitude Azimuth Time Altitude Azimuth
ATLAS 3B R/B 4.0 19:33:42 10° SE 19:37:33 16° ESE 19:41:28 10° ENE
CARTOSAT-1 3.9 19:34:49 10° SSE 19:39:01 53° ENE 19:43:15 10° N
USA 245 4.1 19:35:35 10° SSE 19:40:21 78° ENE 19:46:08 10° NNW
Geosat 4.1 19:35:47 10° SE 19:40:47 74° ENE 19:45:50 10° NNW
Cosmos 1844 4.3 19:36:59 10° NNW 19:42:23 48° NE 19:47:46 10° SE
IGS 5A 4.2 19:38:37 10° S 19:42:40 51° W 19:46:46 10° NNW
Spot 2 Rocket 3.6 19:38:44 10° SSE 19:43:45 68° ENE 19:48:49 10° N
Cosmos 1420 Rocket 4.1 19:40:25 10° SSW 19:45:36 88° WNW 19:50:52 10° NNE
Cosmos 1975 Rocket 3.5 19:42:51 10° SSE 19:47:00 45° E 19:51:12 10° NNE
Cosmos 2219 Rocket 3.9 19:44:09 10° SE 19:47:04 14° E 19:49:58 10° ENE
ERS-1 Rocket 3.3 19:45:17 10° SE 19:50:11 54° ENE 19:55:07 10° N
Cosmos 1461 3.1 19:46:01 10° NW 19:50:18 66° NE 19:54:23 10° SE
Aureole 1 Rocket 4.2 19:44:56 10° NNW 19:50:21 61° ENE 19:57:22 10° SE
Cosmos 1626 3.3 19:53:03 10° SSE 19:56:09 26° E 19:59:17 10° NNE
SL-8 R/B 3.8 19:53:43 10° W 19:58:27 62° SSW 20:03:11 10° ESE
USA 215 4.3 19:53:48 10° ENE 19:58:36 21° SE 20:03:23 10° S
SPOT 3 Rocket 4.4 19:53:48 10° S 19:58:46 48° W 20:03:49 10° NNW
Cosmos 1741 Rocket 4.1 19:56:20 10° NNW 20:01:38 87° WSW 20:06:55 10° SSE
Cosmos 2100 Rocket 4.1 19:56:49 10° N 20:03:15 75° E 20:09:34 10° SSE
JB-3 4.3 19:59:53 10° NNE 20:03:49 68° ESE 20:07:48 10° S
USA 238 DEB 4.0 19:58:32 10° SW 20:05:08 76° NW 20:12:09 10° NE
USA 238 3.9 19:58:39 10° SW 20:05:14 76° NW 20:12:15 10° NE
ATLAS CENTAUR R/B 2.4 20:01:27 10° NNW 20:05:31 43° NE 20:09:50 10° ESE
KORONAS-FOTON 3.9 20:02:26 10° S 20:06:11 60° E 20:09:55 10° NNE
SL-16 R/B 2.3 20:00:40 10° SSW 20:06:21 90° WNW 20:12:04 10° NNE
Cosmos 2360 Rocket 2.5 20:02:40 10° S 20:08:03 47° ESE 20:13:27 10° NE
Cosmos 2322 Rocket 2.2 20:03:32 10° SSW 20:09:13 78° ESE 20:14:57 10° NNE
CZ-2C R/B 4.1 20:05:51 10° NNE 20:10:37 74° WNW 20:15:23 10° SSW
ARIANE 5 R/B 2.8 20:06:29 10° SSE 20:10:55 79° WSW 20:15:26 10° NNW
Genesis I 3.5 20:08:44 10° SW 20:12:36 73° NW 20:16:35 10° NE
Meteor 1-16 Rocket 4.2 20:08:21 10° NNW 20:13:55 87° W 20:19:17 10° S
CENTAUR R/B 3.1 20:10:55 10° SW 20:17:01 69° NW 20:24:25 10° NE
COSMOS 2428 4.0 20:19:05 12° SSE 20:22:56 22° ESE 20:27:16 10° NE
Cosmos 2173 Rocket 4.1 20:16:32 10° N 20:22:57 86° W 20:29:20 10° S
Cosmos 2322 4.5 20:20:50 10° SSE 20:25:46 32° ESE 20:30:45 10° NE
Cosmos 2016 Rocket 4.0 20:19:42 10° N 20:25:50 70° E 20:31:26 12° SSE
Cosmos 1674 2.7 20:23:22 10° SSW 20:27:05 78° W 20:30:49 10° N
Cosmos 1544 Rocket 3.6 20:22:53 10° N 20:27:23 83° ENE 20:31:23 13° SSE
Cosmos 2237 4.2 20:22:21 10° SSW 20:28:02 78° ESE 20:33:46 10° NNE
H-2A R/B 3.9 20:25:47 10° NNE 20:29:41 41° E 20:32:58 14° SSE
Cosmos 2278 Rocket 3.6 20:25:43 10° NNW 20:30:42 30° NE 20:35:40 10° ESE
Cosmos 1455 Rocket 3.6 20:27:59 10° NNW 20:32:21 56° W 20:36:43 10° S
NOSS 8 (A) 4.1 20:29:23 10° SW 20:32:37 87° NW 20:35:33 10° NE
Cosmos 1300 3.2 20:29:10 10° N 20:32:52 46° ENE 20:35:40 16° SE
USA 267 3.7 20:28:09 10° E 20:34:36 64° NNE 20:41:04 10° WNW
CZ-4B DEB 4.2 20:33:13 16° SSE 20:35:38 81° ENE 20:38:49 10° N
Cosmos 1725 Rocket 4.0 20:30:59 10° N 20:37:12 73° E 20:42:36 14° SSE
Cosmos 1110 Rocket 3.9 20:36:43 10° SSW 20:41:54 78° ESE 20:47:08 10° NNE
Cosmos 1844 Rocket 3.0 20:37:16 10° NW 20:42:52 60° WSW 20:47:39 14° S
BREEZE-M DEB (TANK) 3.0 20:42:01 10° SW 20:44:44 54° SSE 20:51:24 10° ENE
Cosmos 1346 Rocket 4.4 20:43:49 15° SE 20:45:50 21° E 20:48:52 10° NE
Meteor 2-5 Rocket 4.0 20:42:18 14° SSE 20:46:51 50° E 20:52:16 10° NNE
Cosmos 968 Rocket 3.8 20:44:26 10° NNW 20:49:30 56° ENE 20:53:31 16° SE
Cosmos 1802 Rocket 4.2 20:43:48 10° NNW 20:50:02 71° W 20:55:59 12° S
Cosmos 1908 4.4 20:47:11 10° NNW 20:50:48 37° W 20:54:23 10° SSW
Cosmos 1340 2.6 20:51:54 15° S 20:54:56 75° E 20:58:43 10° NNE
Cosmos 1900 4.5 20:51:02 10° NW 20:55:53 63° WSW 20:59:24 18° SSE
Lacrosse 5 rocket 1.3 20:52:53 10° SSW 20:56:21 42° SE 20:59:45 10° ENE
SPOT 5 3.9 20:53:08 10° S 20:58:03 43° W 21:02:47 10° NNW
GEOS 3 Rocket 3.7 20:54:56 14° SE 20:59:35 82° NE 21:04:57 10° NW
Cosmos 405 3.0 20:56:25 10° NNW 20:59:52 71° W 21:02:06 20° S
Cosmos 1536 Rocket 3.6 20:58:17 15° S 21:01:57 78° E 21:06:26 10° NNE
DNEPR-1 R/B 3.5 20:59:07 10° NW 21:03:20 72° SW 21:06:15 20° SSE
Cosmos 2333 4.2 20:58:50 10° SSW 21:04:33 71° ESE 21:10:16 10° NNE
Terra 2.7 21:06:08 13° SSW 21:10:07 44° W 21:14:42 10° NNW
Cosmos 1953 4.4 21:07:58 10° NW 21:11:11 23° W 21:14:23 10° SW
Lacrosse 5 4.1 21:11:25 10° W 21:13:06 12° WSW 21:14:47 10° SW
Cosmos 1943 Rocket 4.5 21:11:06 10° N 21:14:52 18° NE 21:18:37 10° ENE
Cosmos 2333 Rocket 2.2 21:09:10 10° SSW 21:14:52 71° ESE 21:20:36 10° NNE
Cosmos 1025 Rocket 4.0 21:10:41 10° SSW 21:14:53 45° WNW 21:19:07 10° N
OPS 8737 4.3 21:13:07 10° SW 21:16:59 73° SE 21:20:03 10° NE
SL-14 R/B 3.9 21:17:35 12° SSW 21:21:12 55° WNW 21:25:11 10° N
Cosmos 2228 3.1 21:17:27 10° N 21:21:53 73° E 21:24:34 23° SSE
FALCON 9 DEB 4.4 21:24:18 21° ESE 21:24:18 21° ESE 21:26:02 10° E
FALCON 9 DEB 3.0 21:20:50 10° WSW 21:24:16 80° SSE 21:27:41 10° ENE
ATLAS 3B R/B 2.6 21:20:32 10° SSW 21:27:03 72° SE 21:33:49 10° NE
Cosmos 2219 Rocket 2.2 21:24:39 11° SSW 21:30:05 79° ESE 21:35:47 10° NNE
Cosmos 1626 4.0 21:28:09 10° SW 21:31:19 26° WNW 21:34:31 10° NNW
Meteor 2-10 Rocket 3.5 21:29:25 10° NNW 21:34:33 81° W 21:37:47 23° S
Meteor 1-24 Rocket 3.6 21:30:57 17° SSW 21:35:11 85° W 21:40:42 10° NNE
Cosmos 1503 Rocket 4.4 21:29:53 10° NNW 21:35:15 62° ENE 21:39:01 20° SE
SL-16 R/B 4.2 21:38:29 10° ESE 21:40:39 12° E 21:42:50 10° ENE
USA 215 3.2 21:35:58 10° ENE 21:42:29 66° SE 21:48:58 10° SW
BREEZE-M DEB (TANK) 2.4 21:39:30 10° WSW 21:42:29 66° SSE 21:50:13 10° E
ATLAS CENTAUR R/B 2.5 21:40:26 10° NW 21:44:21 34° WSW 21:46:25 22° SSW
Cosmos 2237 Rocket 3.0 21:42:21 22° SSE 21:45:07 35° ESE 21:50:10 10° NE
FALCON 9 DEB 3.1 21:44:47 35° SSW 21:45:35 45° SSE 21:48:33 10° ENE
Cosmos 2058 Rocket 3.5 21:41:27 10° N 21:45:50 52° ENE 21:48:18 24° SE
Cosmos 1302 Rocket 4.3 21:42:34 10° SW 21:47:48 67° WNW 21:53:03 10° NNE
FALCON 9 DEB 3.3 21:47:55 38° SSE 21:47:57 38° SSE 21:50:54 10° ENE
Cosmos 2233 Rocket 4.4 21:42:31 10° NNW 21:48:30 55° W 21:53:02 18° SSW
Cosmos 1867 3.6 21:43:21 10° NW 21:48:50 71° SW 21:52:15 23° SSE
Iridium 2 3.6 21:48:10 30° S 21:49:54 73° E 21:53:39 10° N
Cosmos 2360 Rocket 3.6 21:46:59 10° WSW 21:52:12 37° NW 21:57:27 10° NNE
Cosmos 2322 Rocket 4.4 21:49:09 10° W 21:53:54 26° NW 21:58:40 10° NNE
FALCON 9 DEB 3.0 21:53:44 35° SSW 21:54:38 49° SSE 21:57:40 10° ENE
Spot 4 3.9 21:52:23 25° S 21:55:12 72° WSW 22:00:00 10° NNW
Cosmos 1726 Rocket 3.6 21:51:39 10° NNW 21:56:09 80° W 21:58:33 27° S
Cosmos 1513 Rocket 4.5 21:51:41 10° N 21:57:47 79° E 22:01:45 23° SSE
Cosmos 1455 2.1 21:57:05 10° N 22:00:57 87° W 22:02:38 32° S
Cosmos 389 Rocket 3.2 21:58:53 10° NNW 22:02:08 41° W 22:03:30 27° SSW
NOSS 0 Rocket 4.0 22:01:26 21° S 22:05:39 64° ESE 22:11:50 10° NE
COSMOS 2428 2.9 22:01:02 11° SW 22:06:38 73° WNW 22:12:25 10° NNE
Meteor 1-4 Rocket 3.7 22:05:57 10° N 22:09:08 32° ENE 22:10:44 21° ESE
Cosmos 2322 4.5 22:04:16 10° SW 22:09:45 51° NW 22:15:18 10° NNE
Cosmos 1606 Rocket 4.2 22:05:47 10° NNW 22:10:05 47° W 22:12:29 23° SSW
ALOS 2 2.6 22:11:48 29° S 22:14:01 78° WSW 22:18:27 10° NNW
Cosmos 1892 Rocket 3.5 22:12:19 27° SSW 22:14:41 86° W 22:19:10 10° N
COBE Rocket 4.1 22:12:19 26° S 22:15:12 67° W 22:20:10 10° NNW
Cosmos 2278 Rocket 2.3 22:09:35 10° NW 22:15:12 63° WSW 22:18:27 25° S
SJ 16-02 2.9 22:12:36 10° N 22:16:29 29° ENE 22:20:04 11° ESE
USA 267 3.3 22:12:27 17° SE 22:17:40 64° SW 22:24:10 10° WNW
Cosmos 1346 Rocket 3.9 22:19:17 17° SW 22:21:56 40° WNW 22:25:46 10° N
Cosmos 1777 Rocket 4.2 22:21:20 10° NNW 22:26:39 70° ENE 22:30:10 21° SE
SL-4 R/B 2.7 22:30:03 30° SE 22:30:03 30° SE 22:33:07 10° E
GENESIS II 4.2 22:28:59 33° SSW 22:30:32 62° SE 22:34:24 10° NE
Cosmos 1354 Rocket 4.2 22:25:53 10° NNW 22:31:09 60° WSW 22:34:00 27° S
Cosmos 1464 Rocket 4.2 22:26:03 10° NNW 22:32:21 68° W 22:36:22 24° S
Lacrosse 5 rocket 2.2 22:31:58 10° W 22:35:26 44° NNW 22:38:54 10° NE
MTI 3.5 22:33:28 10° NNE 22:36:32 85° ESE 22:37:18 47° S
Cosmos 1992 Rocket 4.4 22:32:39 16° SW 22:36:44 60° WNW 22:41:56 10° NNE
Cosmos 1184 Rocket 3.2 22:38:30 33° SW 22:39:40 55° WNW 22:42:53 10° N
PSLV R/B 4.3 22:37:15 10° NNE 22:41:19 40° E 22:43:14 26° SSE
Cosmos 1634 Rocket 4.5 22:36:22 10° N 22:42:36 56° ENE 22:47:10 19° SSE
Cosmos 1607 4.2 22:37:58 10° NW 22:44:12 55° WSW 22:47:53 24° S
Cosmos 2346 Rocket 4.5 22:40:51 23° SSW 22:44:48 79° W 22:51:01 10° N
Cosmos 1626 Rocket 3.6 22:43:28 30° S 22:45:35 72° E 22:50:02 10° NNE
Aureole 3 3.8 22:48:02 10° N 22:51:28 50° ENE 22:53:36 25° SE
Cosmos 1703 3.5 22:49:57 29° SSW 22:51:47 60° WNW 22:55:43 10° N
Cosmos 1602 Rocket 3.8 22:49:55 29° SSE 22:52:03 61° E 22:56:29 10° NNE
Cosmos 1441 Rocket 3.5 22:52:52 29° SW 22:54:38 61° WNW 22:58:27 10° N
Cosmos 1980 3.8 22:50:45 18° SW 22:55:00 74° WNW 23:00:44 10° NNE
Cosmos 1816 Rocket 4.4 22:52:10 25° S 22:56:00 88° W 23:02:11 10° N
Cosmos 192 4.4 22:54:34 23° SSW 22:57:37 76° WNW 23:02:35 10° NNE
FALCON 9 DEB 2.9 22:56:15 14° WSW 22:58:52 80° NNW 23:02:01 10° ENE
Cosmos 1758 Rocket 4.3 22:57:08 25° SSE 22:59:18 44° E 23:03:31 10° NNE
Helios 1A 4.5 22:56:23 12° SE 22:59:40 31° ENE 23:03:23 10° N
Cosmos 2333 Rocket 4.0 22:54:46 10° WSW 22:59:41 28° NW 23:04:36 10° NNE
Cosmos 1943 Rocket 2.4 22:54:11 10° NNW 22:59:42 67° ENE 23:04:20 15° SE
Cosmos 1892 4.3 22:58:30 18° SE 23:00:16 25° E 23:03:31 10° NNE
FALCON 9 DEB 3.9 22:57:56 10° W 23:01:18 52° N 23:04:39 10° ENE
Cosmos 1328 3.7 22:59:39 33° SSW 23:01:19 75° W 23:05:14 10° N
Cosmos 2034 Rocket 4.3 22:59:41 10° NNW 23:05:42 54° W 23:09:25 23° SSW
BREEZE-M DEB (TANK) 2.2 23:01:45 10° WSW 23:07:15 55° SSE 23:09:42 10° E
Okean 1-7 Rocket 4.4 23:06:13 22° SW 23:08:47 44° WNW 23:13:04 10° N
NOSS 3-1 (C) 3.9 23:09:27 25° S 23:12:03 40° ESE 23:17:47 10° NE
Resurs 1-4 Rocket 4.0 23:09:23 10° NE 23:13:08 19° E 23:16:53 10° SE
Cosmos 2219 Rocket 4.1 23:10:00 10° W 23:14:41 26° NW 23:19:24 10° NNE
EO 1 Del DPAF 3.4 23:12:31 10° NNE 23:16:13 58° ESE 23:17:43 32° SSE
ATLAS 3B R/B 3.9 23:12:02 10° W 23:18:15 40° NNW 23:24:43 10° NE
Cosmos-2242 3.1 23:14:14 10° N 23:18:39 80° ENE 23:21:05 26° SSE
FALCON 9 DEB 3.5 23:18:06 10° W 23:21:10 57° N 23:24:13 10° ENE
USA 32 4.3 23:16:02 10° NNW 23:21:11 57° W 23:24:07 25° SSW
NOSS 3-1 (A) 4.4 23:18:52 19° SSE 23:21:28 28° ESE 23:26:34 10° ENE
CZ-2D R/B 3.9 23:17:33 10° NE 23:21:28 21° E 23:25:17 10° SE
Lacrosse 4 Rocket 4.4 23:20:10 10° N 23:22:41 15° NNE 23:25:11 10° ENE
FALCON 9 DEB 3.3 23:20:29 10° W 23:23:35 62° NNW 23:26:42 10° ENE
SL-16 R/B 2.3 23:20:20 25° SSW 23:23:43 70° ESE 23:29:23 10° NNE
USA 215 3.7 23:19:05 10° ENE 23:25:31 63° NNW 23:31:58 10° W
Cosmos 1812 Rocket 3.9 23:21:58 10° NNW 23:26:12 53° W 23:28:14 28° SSW
YAOGAN 11 4.4 23:23:43 20° SSE 23:26:42 65° ENE 23:31:10 10° N
Cosmos 2237 Rocket 3.0 23:24:08 13° SW 23:29:02 47° NW 23:34:31 10° NNE
FALCON 9 DEB 3.5 23:27:12 10° W 23:30:16 55° N 23:33:20 10° ENE
Cosmos 405 Rocket 4.2 23:28:26 18° SE 23:30:17 27° E 23:33:26 10° NE
ADEOS II 4.4 23:28:22 10° ENE 23:30:44 13° E 23:33:06 10° ESE
ATLAS CENTAUR R/B 3.9 23:25:37 15° SW 23:30:49 83° SE 23:47:07 10° ENE
Tsikada Rocket 4.3 23:28:42 21° SSW 23:32:51 61° WNW 23:38:58 10° N
Thor Agena Rocket 4.0 23:27:48 10° N 23:32:57 55° WNW 23:36:27 20° SW
SL-16 R/B 3.5 23:27:22 10° SE 23:33:12 45° ENE 23:39:02 10° N
Cosmos 2142 Rocket 4.5 23:27:54 10° N 23:34:05 88° ENE 23:38:30 20° S
GP-B 3.7 23:30:27 10° N 23:34:43 46° W 23:37:02 24° SW
Cosmos 1825 3.6 23:33:53 18° SE 23:35:57 29° E 23:39:17 10° NNE
Cosmos 2369 Rocket 2.5 23:32:36 10° NNW 23:38:21 71° ENE 23:44:03 10° SE
MOZ.5/SAFIR/RUBIN 5/SL-8 4.1 23:38:41 17° SSE 23:42:18 67° ENE 23:47:03 10° N
Meteor 1-4 Rocket 4.3 23:41:23 10° NW 23:43:54 19° W 23:44:51 17° WSW
Cosmos 1656 Rocket 4.4 23:40:49 10° NNW 23:46:28 56° NE 23:52:02 10° SE
Cosmos 2221 3.6 23:43:45 10° N 23:47:51 40° ENE 23:51:40 11° SE
SJ 16-02 2.1 23:51:05 10° NW 23:55:07 37° WSW 23:57:01 24° SSW
Cosmos 2278 Rocket 4.3 23:56:57 10° W 23:58:08 11° W 23:59:18 10° WSW
